When you browse on this site, cookies collect data to enhance your experience and personalize the content and advertising you see.
Visit our Privacy Policy to learn more. By continuing to use the site, you agree to this use of cookies and data.
  • Em Portugal
  • Lista de países
  • Para 7 dias
  • Temperatura da água
  • Mapas de satélite
  • Mapa do tempo
  • Widgets de tempo
  • user-avatar
    Iniciar Sessão

    Previsão horária em Stropieszyn

    Hoje, 16 Janeiro, Quarta-feira

    Tempo Temperatura Precipitação Vento Pressão Humidade
    00:00 -1°C° 0.5 mm 9 m/s 732 mmHg 90%
    01:00 -1°C° 0 mm 6 m/s 731 mmHg 93%
    02:00 -1°C° 0.1 mm 7 m/s 732 mmHg 92%
    03:00 0°C° 0.1 mm 8 m/s 732 mmHg 91%
    04:00 0°C° 0.1 mm 9 m/s 732 mmHg 91%
    05:00 0°C° 0.3 mm 8 m/s 733 mmHg 92%
    06:00 0°C° 0.3 mm 7 m/s 733 mmHg 93%
    07:00 -1°C° 0.3 mm 6 m/s 734 mmHg 94%
    08:00 0°C° 0.9 mm 5 m/s 734 mmHg 95%
    09:00 0°C° 0.9 mm 5 m/s 735 mmHg 96%
    10:00 0°C° 0.9 mm 4 m/s 735 mmHg 97%
    11:00 +1°C° 0.4 mm 5 m/s 736 mmHg 96%
    12:00 +1°C° 0.4 mm 6 m/s 736 mmHg 96%
    13:00 +1°C° 0.4 mm 6 m/s 736 mmHg 95%
    14:00 +1°C° 0 mm 6 m/s 736 mmHg 94%
    15:00 +1°C° 0 mm 5 m/s 736 mmHg 93%
    16:00 0°C° 0 mm 5 m/s 737 mmHg 92%
    17:00 0°C° 0 mm 4 m/s 737 mmHg 91%
    18:00 0°C° 0 mm 4 m/s 737 mmHg 91%
    19:00 -1°C° 0 mm 4 m/s 737 mmHg 90%
    20:00 -1°C° 0 mm 4 m/s 737 mmHg 89%
    21:00 0°C° 0 mm 3 m/s 737 mmHg 88%
    22:00 0°C° 0 mm 3 m/s 737 mmHg 87%
    23:00 0°C° 0 mm 3 m/s 736 mmHg 87%

    Amanhã, 17 Janeiro, Quinta-feira

    Tempo Temperatura Precipitação Vento Pressão Humidade
    00:00 0°C° 0 mm 3 m/s 736 mmHg 87%
    01:00 -1°C° 0 mm 3 m/s 736 mmHg 86%
    02:00 -1°C° 0 mm 3 m/s 735 mmHg 85%
    03:00 -1°C° 0 mm 3 m/s 735 mmHg 84%
    04:00 -1°C° 0 mm 3 m/s 735 mmHg 83%
    05:00 -1°C° 0 mm 4 m/s 734 mmHg 80%
    06:00 -1°C° 0 mm 4 m/s 734 mmHg 77%
    07:00 -1°C° 0 mm 4 m/s 734 mmHg 73%
    08:00 0°C° 0 mm 4 m/s 734 mmHg 73%
    09:00 0°C° 0 mm 4 m/s 734 mmHg 72%
    10:00 +1°C° 0 mm 4 m/s 734 mmHg 71%
    11:00 +1°C° 0 mm 4 m/s 734 mmHg 73%
    12:00 +2°C° 0 mm 5 m/s 734 mmHg 75%
    13:00 +2°C° 0 mm 5 m/s 734 mmHg 77%
    14:00 +3°C° 0 mm 4 m/s 734 mmHg 79%
    15:00 +1°C° 0 mm 4 m/s 734 mmHg 82%
    16:00 0°C° 0 mm 4 m/s 734 mmHg 84%
    17:00 0°C° 0 mm 4 m/s 734 mmHg 84%
    18:00 0°C° 0 mm 4 m/s 734 mmHg 83%
    19:00 0°C° 0 mm 4 m/s 734 mmHg 83%
    20:00 0°C° 0 mm 5 m/s 734 mmHg 82%
    21:00 +1°C° 0 mm 5 m/s 734 mmHg 81%
    22:00 +1°C° 0 mm 6 m/s 734 mmHg 80%
    23:00 +1°C° 0 mm 6 m/s 734 mmHg 81%

    Depois de amanhã, 18 Janeiro, Sexta-feira

    Tempo Temperatura Precipitação Vento Pressão Humidade
    00:00 +1°C° 0 mm 6 m/s 734 mmHg 82%
    01:00 +1°C° 0 mm 6 m/s 734 mmHg 82%
    02:00 -1°C° 0 mm 6 m/s 735 mmHg 83%
    03:00 0°C° 0 mm 5 m/s 735 mmHg 83%
    04:00 -1°C° 0 mm 5 m/s 735 mmHg 84%
    05:00 -1°C° 0 mm 5 m/s 736 mmHg 80%
    06:00 -3°C° 0 mm 6 m/s 736 mmHg 76%
    07:00 -3°C° 0 mm 7 m/s 736 mmHg 72%
    08:00 -3°C° 0 mm 7 m/s 737 mmHg 70%
    09:00 -4°C° 0 mm 8 m/s 738 mmHg 68%
    10:00 -4°C° 0 mm 9 m/s 738 mmHg 66%
    11:00 -3°C° 0 mm 9 m/s 739 mmHg 66%
    12:00 -2°C° 0 mm 8 m/s 740 mmHg 66%
    13:00 -2°C° 0 mm 8 m/s 740 mmHg 66%
    14:00 -2°C° 0 mm 7 m/s 741 mmHg 69%
    15:00 -2°C° 0 mm 6 m/s 742 mmHg 72%
    16:00 -2°C° 0 mm 5 m/s 742 mmHg 74%
    17:00 -2°C° 0 mm 4 m/s 743 mmHg 77%
    18:00 -2°C° 0 mm 4 m/s 744 mmHg 79%
    19:00 -1°C° 0 mm 3 m/s 744 mmHg 82%
    20:00 -2°C° 0 mm 3 m/s 745 mmHg 83%
    21:00 -2°C° 0 mm 3 m/s 745 mmHg 85%
    22:00 -3°C° 0 mm 2 m/s 745 mmHg 87%
    23:00 -3°C° 0 mm 2 m/s 746 mmHg 87%

    19 Janeiro, Sábado

    Tempo Temperatura Precipitação Vento Pressão Humidade
    00:00 -3°C° 0 mm 2 m/s 746 mmHg 87%
    01:00 -3°C° 0 mm 2 m/s 746 mmHg 88%
    02:00 -3°C° 0 mm 2 m/s 746 mmHg 87%
    03:00 -3°C° 0 mm 2 m/s 746 mmHg 86%
    04:00 -3°C° 0 mm 2 m/s 746 mmHg 86%
    05:00 -1°C° 0 mm 1 m/s 746 mmHg 85%
    06:00 -1°C° 0 mm 1 m/s 746 mmHg 83%
    07:00 -1°C° 0 mm 1 m/s 746 mmHg 82%
    08:00 -1°C° 0 mm 1 m/s 746 mmHg 78%
    09:00 -1°C° 0 mm 1 m/s 746 mmHg 74%
    10:00 0°C° 0 mm 1 m/s 746 mmHg 71%
    11:00 0°C° 0 mm 1 m/s 746 mmHg 68%
    12:00 +1°C° 0 mm 1 m/s 745 mmHg 66%
    13:00 +1°C° 0 mm 1 m/s 745 mmHg 63%
    14:00 +1°C° 0 mm 1 m/s 745 mmHg 66%
    15:00 0°C° 0 mm 1 m/s 744 mmHg 70%
    16:00 0°C° 0 mm 1 m/s 744 mmHg 73%
    17:00 -1°C° 0 mm 1 m/s 744 mmHg 75%
    18:00 -1°C° 0 mm 1 m/s 744 mmHg 77%
    19:00 -1°C° 0 mm 1 m/s 744 mmHg 79%
    20:00 -1°C° 0 mm 1 m/s 744 mmHg 80%
    21:00 -1°C° 0 mm 1 m/s 744 mmHg 81%
    22:00 -1°C° 0 mm 1 m/s 744 mmHg 82%
    23:00 -1°C° 0 mm 1 m/s 744 mmHg 83%

    20 Janeiro, Domingo

    Tempo Temperatura Precipitação Vento Pressão Humidade
    00:00 -1°C° 0 mm 1 m/s 744 mmHg 83%
    01:00 -2°C° 0 mm 1 m/s 744 mmHg 84%
    02:00 -2°C° 0 mm 1 m/s 743 mmHg 85%
    03:00 -2°C° 0 mm 1 m/s 743 mmHg 85%
    04:00 -2°C° 0 mm 1 m/s 743 mmHg 86%
    05:00 -2°C° 0 mm 1 m/s 743 mmHg 86%
    06:00 -2°C° 0 mm 1 m/s 743 mmHg 85%
    07:00 -2°C° 0 mm 1 m/s 743 mmHg 85%
    08:00 -2°C° 0 mm 1 m/s 744 mmHg 81%
    09:00 -1°C° 0 mm 1 m/s 744 mmHg 77%
    10:00 -1°C° 0 mm 1 m/s 744 mmHg 73%
    11:00 0°C° 0 mm 1 m/s 744 mmHg 69%
    12:00 0°C° 0 mm 1 m/s 744 mmHg 65%
    13:00 +1°C° 0 mm 1 m/s 744 mmHg 60%
    14:00 -2°C° 0 mm 2 m/s 744 mmHg 64%
    15:00 -2°C° 0 mm 2 m/s 744 mmHg 67%
    16:00 -2°C° 0 mm 2 m/s 744 mmHg 70%
    17:00 -3°C° 0 mm 2 m/s 744 mmHg 72%
    18:00 -3°C° 0 mm 2 m/s 745 mmHg 73%
    19:00 -3°C° 0 mm 2 m/s 745 mmHg 75%
    20:00 -4°C° 0 mm 3 m/s 746 mmHg 77%
    21:00 -4°C° 0 mm 3 m/s 746 mmHg 78%
    22:00 -5°C° 0 mm 3 m/s 746 mmHg 79%
    23:00 -5°C° 0 mm 3 m/s 747 mmHg 82%

    21 Janeiro, Segunda-feira

    Tempo Temperatura Precipitação Vento Pressão Humidade
    00:00 -5°C° 0 mm 3 m/s 747 mmHg 85%
    01:00 -5°C° 0 mm 3 m/s 747 mmHg 87%
    02:00 -5°C° 0 mm 3 m/s 748 mmHg 89%
    03:00 -5°C° 0 mm 3 m/s 748 mmHg 90%
    04:00 -6°C° 0 mm 3 m/s 748 mmHg 91%
    05:00 -5°C° 0 mm 2 m/s 749 mmHg 91%
    06:00 -5°C° 0 mm 2 m/s 749 mmHg 90%
    07:00 -5°C° 0 mm 2 m/s 750 mmHg 90%
    08:00 -5°C° 0 mm 2 m/s 750 mmHg 85%
    09:00 -4°C° 0 mm 2 m/s 751 mmHg 81%
    10:00 -4°C° 0 mm 2 m/s 751 mmHg 77%
    11:00 -3°C° 0 mm 2 m/s 751 mmHg 73%
    12:00 -3°C° 0 mm 2 m/s 751 mmHg 69%
    13:00 -2°C° 0 mm 2 m/s 752 mmHg 65%
    14:00 -3°C° 0 mm 2 m/s 752 mmHg 67%
    15:00 -3°C° 0 mm 2 m/s 752 mmHg 69%
    16:00 -1°C° 0 mm 1 m/s 752 mmHg 71%
    17:00 -2°C° 0 mm 1 m/s 752 mmHg 73%
    18:00 -2°C° 0 mm 1 m/s 752 mmHg 74%
    19:00 -2°C° 0 mm 1 m/s 753 mmHg 76%
    20:00 -2°C° 0 mm 1 m/s 753 mmHg 77%
    21:00 -3°C° 0 mm 1 m/s 753 mmHg 78%
    22:00 -3°C° 0 mm 1 m/s 753 mmHg 79%
    23:00 -3°C° 0 mm 1 m/s 753 mmHg 79%
    Mostrar mais